Imperial, CA

2:04 AM PDT on April 24, 2017 (GMT -0700)
Imperial County

Weather History for KIPL - October, 2013

Change the Weather History Date:

Friday, October 25, 2013

  Actual Average Record
Temperature  
Mean Temperature 73 °F -  
Max Temperature 91 °F 85 °F 100 °F (1959)
Min Temperature 55 °F 58 °F 43 °F (1975)
Cooling Degree Days 8    
Growing Degree Days 23 (Base 50)    
Moisture  
Dew Point 37 °F    
Average Humidity 32    
Maximum Humidity 49    
Minimum Humidity 10    
Precipitation  
Precipitation 0.00 in - - ()
Sea Level Pressure  
Sea Level Pressure 29.96 in    
Wind  
Wind Speed 3 mph (WSW)    
Max Wind Speed 6 mph    
Max Gust Speed -    
Visibility 10 miles    
Events      
Averages and records for this station are not official NWS values.
T = Trace of Precipitation, MM = Missing Value Source: NWS Daily Summary

Daily Weather History Graph

Daily Weather History Graph

Search for Another Location

Airport or City:

Trip Planner

Search our weather history database for the weather conditions in past years. The results will help you decide how hot, cold, wet, or windy it might be!

Date:

Astronomy

Oct. 25, 2013 Rise Set
Actual Time 6:54 AM PDT 5:57 PM PDT
Civil Twilight 6:29 AM PDT 6:22 PM PDT
Nautical Twilight 6:00 AM PDT 6:51 PM PDT
Astronomical Twilight 5:31 AM PDT 7:20 PM PDT
Moon 11:25 PM PDT (10/25) 12:32 PM PDT (10/25)
Length of Visible Light 11h 53m
Length of Day
11h 03m
Waning Gibbous, 61% of the Moon is Illuminated
Oct 25
Waning Gibbous
Oct 26
Last Quarter
Nov 3
New
Nov 9
First Quarter
Nov 17
Full

Hourly Weather History & Observations

Time (PDT) Temp. Dew Point Humidity Pressure Visibility Wind Dir Wind Speed Gust Speed Precip Events Conditions
12:53 AM 60.1 °F 37.9 °F 44% 29.91 in 10.0 mi WSW 4.6 mph - N/A   Clear
1:53 AM 57.9 °F 39.0 °F 49% 29.92 in 10.0 mi West 4.6 mph - N/A   Clear
2:53 AM 59.0 °F 39.0 °F 48% 29.92 in 10.0 mi Calm Calm - N/A   Clear
3:53 AM 57.9 °F 37.9 °F 47% 29.92 in 10.0 mi WSW 4.6 mph - N/A   Clear
4:53 AM 57.9 °F 36.0 °F 44% 29.94 in 10.0 mi WSW 3.5 mph - N/A   Clear
5:53 AM 57.0 °F 37.0 °F 47% 29.95 in 10.0 mi West 3.5 mph - N/A   Clear
6:53 AM 55.9 °F 36.0 °F 47% 29.96 in 10.0 mi SSW 3.5 mph - N/A   Clear
7:53 AM 59.0 °F 37.9 °F 46% 29.98 in 10.0 mi Calm Calm - N/A   Clear
8:53 AM 68.0 °F 42.1 °F 39% 30.01 in 10.0 mi Calm Calm - N/A   Clear
9:53 AM 73.9 °F 41.0 °F 30% 30.02 in 10.0 mi Calm Calm - N/A   Clear
10:53 AM 79.0 °F 44.1 °F 29% 30.01 in 10.0 mi Calm Calm - N/A   Clear
11:53 AM 82.0 °F 37.9 °F 21% 30.01 in 10.0 mi Calm Calm - N/A   Clear
12:53 PM 86.0 °F 37.9 °F 18% 29.98 in 10.0 mi Calm Calm - N/A   Clear
1:53 PM 88.0 °F 37.9 °F 17% 29.96 in 10.0 mi Calm Calm - N/A   Clear
2:53 PM 91.0 °F 33.1 °F 13% 29.94 in 10.0 mi Calm Calm - N/A   Clear
3:53 PM 91.9 °F 27.0 °F 10% 29.94 in 10.0 mi ENE 4.6 mph - N/A   Clear
4:53 PM 89.1 °F 36.0 °F 15% 29.93 in 10.0 mi SSW 5.8 mph - N/A   Clear
5:53 PM 84.9 °F 34.0 °F 16% 29.93 in 10.0 mi Calm Calm - N/A   Clear
6:53 PM 78.1 °F 36.0 °F 22% 29.94 in 10.0 mi Calm Calm - N/A   Clear
7:53 PM 75.0 °F 32.0 °F 21% 29.95 in 10.0 mi Calm Calm - N/A   Clear
8:53 PM 73.9 °F 36.0 °F 25% 29.96 in 10.0 mi Calm Calm - N/A   Clear
9:53 PM 64.9 °F 43.0 °F 45% 29.97 in 10.0 mi WNW 3.5 mph - N/A   Clear
10:53 PM 66.9 °F 39.9 °F 37% 29.97 in 10.0 mi West 4.6 mph - N/A   Clear
11:53 PM 64.0 °F 39.9 °F 41% 29.98 in 10.0 mi West 4.6 mph - N/A   Clear